When you browse on this site, cookies collect data to enhance your experience and personalize the content and advertising you see.
Visit our Privacy Policy to learn more. By continuing to use the site, you agree to this use of cookies and data.
  • In Norway
  • List of Countries
  • For 7 days
  • Water Temperature
  • Satellite Maps
  • Weather Map
  • Weather Widgets
  • user-avatar
    Login

    Hourly Weather As-Salt

    Today, 25 June, Tuesday

    Time Temperature Precipitation Wind Pressure Humidity
    00:00 +26°C° 0 mm 1 mps 709 mmHg 46%
    01:00 +25°C° 0 mm 1 mps 709 mmHg 48%
    02:00 +24°C° 0 mm 1 mps 709 mmHg 50%
    03:00 +24°C° 0 mm 1 mps 709 mmHg 52%
    04:00 +24°C° 0 mm 1 mps 709 mmHg 55%
    05:00 +23°C° 0 mm 1 mps 709 mmHg 57%
    06:00 +26°C° 0 mm 1 mps 710 mmHg 50%
    07:00 +28°C° 0 mm 1 mps 710 mmHg 43%
    08:00 +30°C° 0 mm 2 mps 710 mmHg 36%
    09:00 +32°C° 0 mm 2 mps 710 mmHg 31%
    10:00 +35°C° 0 mm 2 mps 711 mmHg 26%
    11:00 +38°C° 0 mm 3 mps 711 mmHg 21%
    12:00 +39°C° 0 mm 3 mps 710 mmHg 19%
    13:00 +40°C° 0 mm 3 mps 710 mmHg 17%
    14:00 +43°C° 0 mm 4 mps 710 mmHg 15%
    15:00 +41°C° 0 mm 4 mps 710 mmHg 19%
    16:00 +40°C° 0 mm 5 mps 709 mmHg 23%
    17:00 +37°C° 0 mm 5 mps 709 mmHg 27%
    18:00 +35°C° 0 mm 4 mps 709 mmHg 31%
    19:00 +31°C° 0 mm 3 mps 709 mmHg 35%
    20:00 +29°C° 0 mm 2 mps 709 mmHg 39%
    21:00 +28°C° 0 mm 2 mps 709 mmHg 40%
    22:00 +27°C° 0 mm 2 mps 710 mmHg 42%
    23:00 +27°C° 0 mm 1 mps 710 mmHg 43%

    Tomorrow, 26 June, Wednesday

    Time Temperature Precipitation Wind Pressure Humidity
    00:00 +26°C° 0 mm 1 mps 710 mmHg 45%
    01:00 +25°C° 0 mm 1 mps 709 mmHg 48%
    02:00 +25°C° 0 mm 1 mps 709 mmHg 50%
    03:00 +25°C° 0 mm 1 mps 709 mmHg 52%
    04:00 +24°C° 0 mm 1 mps 709 mmHg 55%
    05:00 +24°C° 0 mm 1 mps 710 mmHg 58%
    06:00 +26°C° 0 mm 1 mps 710 mmHg 52%
    07:00 +28°C° 0 mm 2 mps 710 mmHg 47%
    08:00 +29°C° 0 mm 2 mps 711 mmHg 41%
    09:00 +31°C° 0 mm 2 mps 711 mmHg 36%
    10:00 +34°C° 0 mm 3 mps 711 mmHg 31%
    11:00 +36°C° 0 mm 3 mps 711 mmHg 26%
    12:00 +37°C° 0 mm 4 mps 711 mmHg 24%
    13:00 +38°C° 0 mm 4 mps 710 mmHg 22%
    14:00 +40°C° 0 mm 4 mps 710 mmHg 20%
    15:00 +39°C° 0 mm 5 mps 710 mmHg 22%
    16:00 +37°C° 0 mm 5 mps 710 mmHg 23%
    17:00 +36°C° 0 mm 6 mps 710 mmHg 24%
    18:00 +33°C° 0 mm 4 mps 710 mmHg 30%
    19:00 +30°C° 0 mm 3 mps 710 mmHg 35%
    20:00 +28°C° 0 mm 2 mps 710 mmHg 40%
    21:00 +27°C° 0 mm 2 mps 710 mmHg 41%
    22:00 +26°C° 0 mm 1 mps 709 mmHg 41%
    23:00 +26°C° 0 mm 1 mps 709 mmHg 42%

    Day after tomorrow, 27 June, Thursday

    Time Temperature Precipitation Wind Pressure Humidity
    00:00 +25°C° 0 mm 2 mps 709 mmHg 44%
    01:00 +25°C° 0 mm 2 mps 709 mmHg 46%
    02:00 +24°C° 0 mm 2 mps 709 mmHg 48%
    03:00 +24°C° 0 mm 2 mps 709 mmHg 50%
    04:00 +23°C° 0 mm 2 mps 709 mmHg 52%
    05:00 +23°C° 0 mm 2 mps 709 mmHg 54%
    06:00 +25°C° 0 mm 2 mps 709 mmHg 46%
    07:00 +27°C° 0 mm 2 mps 709 mmHg 37%
    08:00 +30°C° 0 mm 3 mps 710 mmHg 29%
    09:00 +31°C° 0 mm 3 mps 710 mmHg 26%
    10:00 +34°C° 0 mm 4 mps 710 mmHg 23%
    11:00 +35°C° 0 mm 4 mps 710 mmHg 20%
    12:00 +36°C° 0 mm 5 mps 709 mmHg 19%
    13:00 +37°C° 0 mm 5 mps 709 mmHg 18%
    14:00 +39°C° 0 mm 6 mps 709 mmHg 16%
    15:00 +38°C° 0 mm 6 mps 709 mmHg 19%
    16:00 +35°C° 0 mm 6 mps 709 mmHg 21%
    17:00 +34°C° 0 mm 7 mps 708 mmHg 23%
    18:00 +32°C° 0 mm 5 mps 708 mmHg 33%
    19:00 +28°C° 0 mm 4 mps 708 mmHg 43%
    20:00 +26°C° 0 mm 2 mps 708 mmHg 53%
    21:00 +25°C° 0 mm 2 mps 708 mmHg 55%
    22:00 +24°C° 0 mm 2 mps 708 mmHg 58%
    23:00 +23°C° 0 mm 1 mps 707 mmHg 61%

    28 June, Friday

    Time Temperature Precipitation Wind Pressure Humidity
    00:00 +23°C° 0 mm 1 mps 707 mmHg 61%
    01:00 +21°C° 0 mm 2 mps 707 mmHg 61%
    02:00 +21°C° 0 mm 2 mps 706 mmHg 61%
    03:00 +21°C° 0 mm 2 mps 706 mmHg 64%
    04:00 +20°C° 0 mm 2 mps 706 mmHg 67%
    05:00 +20°C° 0 mm 2 mps 706 mmHg 70%
    06:00 +23°C° 0 mm 2 mps 706 mmHg 63%
    07:00 +24°C° 0 mm 2 mps 707 mmHg 56%
    08:00 +26°C° 0 mm 3 mps 707 mmHg 50%
    09:00 +28°C° 0 mm 3 mps 707 mmHg 45%
    10:00 +29°C° 0 mm 4 mps 707 mmHg 40%
    11:00 +32°C° 0 mm 4 mps 707 mmHg 35%
    12:00 +33°C° 0 mm 5 mps 707 mmHg 33%
    13:00 +34°C° 0 mm 5 mps 707 mmHg 30%
    14:00 +35°C° 0 mm 6 mps 706 mmHg 27%
    15:00 +34°C° 0 mm 6 mps 706 mmHg 30%
    16:00 +33°C° 0 mm 6 mps 706 mmHg 33%
    17:00 +32°C° 0 mm 6 mps 706 mmHg 36%
    18:00 +29°C° 0 mm 5 mps 706 mmHg 47%
    19:00 +27°C° 0 mm 3 mps 706 mmHg 57%
    20:00 +24°C° 0 mm 2 mps 706 mmHg 68%
    21:00 +24°C° 0 mm 2 mps 706 mmHg 69%
    22:00 +23°C° 0 mm 2 mps 706 mmHg 70%
    23:00 +23°C° 0 mm 2 mps 706 mmHg 71%

    29 June, Saturday

    Time Temperature Precipitation Wind Pressure Humidity
    00:00 +21°C° 0 mm 2 mps 706 mmHg 75%
    01:00 +21°C° 0 mm 2 mps 706 mmHg 80%
    02:00 +20°C° 0 mm 2 mps 706 mmHg 85%
    03:00 +21°C° 0 mm 1 mps 706 mmHg 86%
    04:00 +21°C° 0 mm 1 mps 706 mmHg 88%
    05:00 +21°C° 0 mm 1 mps 706 mmHg 90%
    06:00 +21°C° 0 mm 2 mps 706 mmHg 82%
    07:00 +24°C° 0 mm 3 mps 706 mmHg 73%
    08:00 +25°C° 0 mm 3 mps 707 mmHg 65%
    09:00 +27°C° 0 mm 4 mps 707 mmHg 57%
    10:00 +29°C° 0 mm 4 mps 707 mmHg 49%
    11:00 +32°C° 0 mm 4 mps 707 mmHg 41%
    12:00 +33°C° 0 mm 5 mps 707 mmHg 38%
    13:00 +34°C° 0 mm 5 mps 707 mmHg 35%
    14:00 +35°C° 0 mm 5 mps 707 mmHg 32%
    15:00 +35°C° 0 mm 6 mps 707 mmHg 34%
    16:00 +34°C° 0 mm 6 mps 706 mmHg 35%
    17:00 +33°C° 0 mm 7 mps 706 mmHg 37%
    18:00 +30°C° 0 mm 5 mps 707 mmHg 46%
    19:00 +28°C° 0 mm 4 mps 707 mmHg 55%
    20:00 +26°C° 0 mm 3 mps 707 mmHg 64%
    21:00 +25°C° 0 mm 2 mps 707 mmHg 66%
    22:00 +24°C° 0 mm 2 mps 707 mmHg 68%
    23:00 +24°C° 0 mm 1 mps 707 mmHg 70%

    30 June, Sunday

    Time Temperature Precipitation Wind Pressure Humidity
    00:00 +23°C° 0 mm 1 mps 707 mmHg 71%
    01:00 +23°C° 0 mm 2 mps 706 mmHg 71%
    02:00 +21°C° 0 mm 2 mps 706 mmHg 72%
    03:00 +22°C° 0 mm 1 mps 706 mmHg 74%
    04:00 +22°C° 0 mm 1 mps 706 mmHg 75%
    05:00 +22°C° 0 mm 1 mps 706 mmHg 76%
    06:00 +23°C° 0 mm 1 mps 707 mmHg 68%
    07:00 +25°C° 0 mm 2 mps 707 mmHg 60%
    08:00 +27°C° 0 mm 2 mps 707 mmHg 51%
    09:00 +28°C° 0 mm 3 mps 708 mmHg 45%
    10:00 +30°C° 0 mm 3 mps 708 mmHg 39%
    11:00 +32°C° 0 mm 4 mps 708 mmHg 33%
    12:00 +33°C° 0 mm 4 mps 708 mmHg 30%
    13:00 +34°C° 0 mm 4 mps 707 mmHg 28%
    14:00 +35°C° 0 mm 4 mps 707 mmHg 25%
    15:00 +35°C° 0 mm 4 mps 707 mmHg 27%
    16:00 +35°C° 0 mm 5 mps 707 mmHg 28%
    17:00 +34°C° 0 mm 6 mps 707 mmHg 29%
    18:00 +32°C° 0 mm 4 mps 707 mmHg 34%
    19:00 +29°C° 0 mm 3 mps 707 mmHg 39%
    20:00 +26°C° 0 mm 2 mps 707 mmHg 44%
    21:00 +26°C° 0 mm 1 mps 707 mmHg 47%
    22:00 +25°C° 0 mm 1 mps 707 mmHg 50%
    23:00 +24°C° 0 mm 1 mps 707 mmHg 53%
    Show more